Location: Newark
(7.0858°N, 171.3717°E)
Time: 15:55:07
(UTC+00:00)

Courier 1B Rocket - Pass Details

Date: 05 December 2020
Orbit: 920 x 1202 km, 28.2° (Epoch: 20 January)

Event Time Altitude Azimuth Distance (km) Brightness Sun altitude
Rises 23:21:39 0° 289° (WNW) 4,031 8.0 56.5°
Reaches altitude 10° 23:24:39 10° 283° (WNW) 3,038 7.5 56.9°
Maximum altitude 23:31:47 47° 211° (SSW) 1,414 7.0 57.6°
Drops below altitude 10° 23:38:27 10° 139° (SE) 2,843 8.1 58.2°
Sets 23:41:11 0° 133° (SE) 3,753 8.5 58.5°
